Time,TemperatureF,DewpointF,PressureIn,WindDirection,WindDirectionDegrees,WindSpeedMPH,WindSpeedGustMPH,Humidity,HourlyPrecipIn,Conditions,Clouds,dailyrainin,SoftwareType,DateUTC
2013-02-20 00:09:00,47.0,34.2,29.73,NW,314,9.0,9.0,61,0.00,,,0.00,Wunderground v.1.15,2013-02-20 08:09:00,
2013-02-20 00:19:00,47.0,33.0,29.74,NW,306,7.0,7.0,58,0.00,,,0.00,Wunderground v.1.15,2013-02-20 08:19:00,
2013-02-20 00:29:00,46.8,32.8,29.74,West,267,6.0,10.0,58,0.00,,,0.00,Wunderground v.1.15,2013-02-20 08:29:00,
2013-02-20 00:39:00,46.5,32.1,29.73,West,263,8.0,10.0,57,0.00,,,0.00,Wunderground v.1.15,2013-02-20 08:39:00,
2013-02-20 00:49:00,46.4,31.5,29.73,NW,304,6.0,6.0,56,0.00,,,0.00,Wunderground v.1.15,2013-02-20 08:49:00,
2013-02-20 00:59:00,46.1,30.8,29.73,WNW,282,5.0,13.0,55,0.00,,,0.00,Wunderground v.1.15,2013-02-20 08:59:00,
2013-02-20 01:09:00,46.0,31.6,29.74,WSW,244,5.0,5.0,57,0.00,,,0.00,Wunderground v.1.15,2013-02-20 09:09:00,
2013-02-20 01:19:00,45.8,31.9,29.73,WSW,252,5.0,10.0,58,0.00,,,0.00,Wunderground v.1.15,2013-02-20 09:19:00,
2013-02-20 01:29:00,45.7,30.9,29.73,WSW,252,5.0,5.0,56,0.00,,,0.00,Wunderground v.1.15,2013-02-20 09:29:00,
2013-02-20 01:39:00,45.8,30.5,29.73,WNW,290,4.0,4.0,55,0.00,,,0.00,Wunderground v.1.15,2013-02-20 09:39:00,
2013-02-20 01:49:00,45.8,31.0,29.73,NW,317,4.0,4.0,56,0.00,,,0.00,Wunderground v.1.15,2013-02-20 09:49:00,
2013-02-20 01:59:00,46.0,32.5,29.73,West,281,5.0,5.0,59,0.00,,,0.00,Wunderground v.1.15,2013-02-20 09:59:00,
2013-02-20 02:09:00,46.0,31.2,29.73,WNW,299,4.0,4.0,56,0.00,,,0.00,Wunderground v.1.15,2013-02-20 10:09:00,
2013-02-20 02:19:00,46.0,30.7,29.73,West,275,6.0,13.0,55,0.00,,,0.00,Wunderground v.1.15,2013-02-20 10:19:00,
2013-02-20 02:29:00,46.1,30.8,29.73,NW,311,6.0,6.0,55,0.00,,,0.00,Wunderground v.1.15,2013-02-20 10:29:00,
2013-02-20 02:39:00,46.1,30.8,29.73,NW,310,4.0,4.0,55,0.00,,,0.00,Wunderground v.1.15,2013-02-20 10:39:00,
2013-02-20 02:49:00,46.1,31.7,29.73,SW,232,5.0,10.0,57,0.00,,,0.00,Wunderground v.1.15,2013-02-20 10:49:00,
2013-02-20 02:59:00,46.2,31.4,29.73,West,277,7.0,7.0,56,0.00,,,0.00,Wunderground v.1.15,2013-02-20 10:59:00,
2013-02-20 03:09:00,46.0,31.6,29.73,NW,308,6.0,6.0,57,0.00,,,0.00,Wunderground v.1.15,2013-02-20 11:09:00,
2013-02-20 03:19:00,45.5,30.7,29.73,NW,325,6.0,6.0,56,0.00,,,0.00,Wunderground v.1.15,2013-02-20 11:19:00,
2013-02-20 03:29:00,45.2,30.0,29.73,NW,323,5.0,6.0,55,0.00,,,0.00,Wunderground v.1.15,2013-02-20 11:29:00,
2013-02-20 03:39:00,44.9,29.2,29.73,NW,317,6.0,7.0,54,0.00,,,0.00,Wunderground v.1.15,2013-02-20 11:39:00,
2013-02-20 03:49:00,44.6,29.0,29.73,NW,319,5.0,7.0,54,0.00,,,0.00,Wunderground v.1.15,2013-02-20 11:49:00,
2013-02-20 03:59:00,44.5,28.0,29.73,NW,304,6.0,6.0,52,0.00,,,0.00,Wunderground v.1.15,2013-02-20 11:59:00,
2013-02-20 04:09:00,44.3,27.8,29.74,NW,325,4.0,7.0,52,0.00,,,0.00,Wunderground v.1.15,2013-02-20 12:09:00,
2013-02-20 04:19:00,44.1,28.0,29.75,NW,321,2.0,2.0,53,0.00,,,0.00,Wunderground v.1.15,2013-02-20 12:19:00,
2013-02-20 04:29:00,43.5,27.9,29.75,NW,312,2.0,2.0,54,0.00,,,0.00,Wunderground v.1.15,2013-02-20 12:29:00,
2013-02-20 04:39:00,43.3,27.3,29.76,NW,311,3.0,4.0,53,0.00,,,0.00,Wunderground v.1.15,2013-02-20 12:39:00,
2013-02-20 04:49:00,43.2,27.7,29.75,West,276,3.0,3.0,54,0.00,,,0.00,Wunderground v.1.15,2013-02-20 12:49:00,
2013-02-20 04:59:00,42.9,27.4,29.75,WNW,284,3.0,3.0,54,0.00,,,0.00,Wunderground v.1.15,2013-02-20 12:59:00,
2013-02-20 05:09:00,42.5,27.0,29.76,West,269,1.0,3.0,54,0.00,,,0.00,Wunderground v.1.15,2013-02-20 13:09:00,
2013-02-20 05:19:00,42.3,26.4,29.76,WSW,257,2.0,2.0,53,0.00,,,0.00,Wunderground v.1.15,2013-02-20 13:19:00,
2013-02-20 05:29:00,42.6,26.2,29.76,West,272,2.0,3.0,52,0.00,,,0.00,Wunderground v.1.15,2013-02-20 13:29:00,
2013-02-20 05:39:00,43.3,25.9,29.75,NW,307,4.0,7.0,50,0.00,,,0.00,Wunderground v.1.15,2013-02-20 13:39:00,
2013-02-20 05:49:00,44.1,26.6,29.75,NW,315,5.0,5.0,50,0.00,,,0.00,Wunderground v.1.15,2013-02-20 13:49:00,
2013-02-20 05:59:00,44.5,26.0,29.75,WNW,300,5.0,5.0,48,0.00,,,0.00,Wunderground v.1.15,2013-02-20 13:59:00,
2013-02-20 06:09:00,44.9,26.4,29.76,West,265,4.0,4.0,48,0.00,,,0.00,Wunderground v.1.15,2013-02-20 14:09:00,
2013-02-20 06:19:00,44.8,26.3,29.76,West,269,4.0,5.0,48,0.00,,,0.00,Wunderground v.1.15,2013-02-20 14:19:00,
2013-02-20 06:29:00,44.2,26.7,29.76,West,268,3.0,3.0,50,0.00,,,0.00,Wunderground v.1.15,2013-02-20 14:29:00,
2013-02-20 06:39:00,44.3,25.8,29.76,NW,321,5.0,5.0,48,0.00,,,0.00,Wunderground v.1.15,2013-02-20 14:39:00,
2013-02-20 06:49:00,45.1,26.1,29.77,NW,306,7.0,10.0,47,0.00,,,0.00,Wunderground v.1.15,2013-02-20 14:49:00,
2013-02-20 06:59:00,45.1,27.6,29.77,NW,320,6.0,6.0,50,0.00,,,0.00,Wunderground v.1.15,2013-02-20 14:59:00,
2013-02-20 07:09:00,45.2,28.1,29.77,WNW,302,7.0,7.0,51,0.00,,,0.00,Wunderground v.1.15,2013-02-20 15:09:00,
2013-02-20 07:19:00,46.0,28.4,29.77,NW,314,6.0,6.0,50,0.00,,,0.00,Wunderground v.1.15,2013-02-20 15:19:00,
2013-02-20 07:29:00,46.5,28.3,29.77,West,262,6.0,6.0,49,0.00,,,0.00,Wunderground v.1.15,2013-02-20 15:29:00,
2013-02-20 07:39:00,47.1,27.9,29.78,WNW,292,5.0,6.0,47,0.00,,,0.00,Wunderground v.1.15,2013-02-20 15:39:00,
2013-02-20 07:49:00,47.7,28.9,29.79,West,259,4.0,4.0,48,0.00,,,0.00,Wunderground v.1.15,2013-02-20 15:49:00,
2013-02-20 07:59:00,48.3,29.5,29.79,NW,323,5.0,5.0,48,0.00,,,0.00,Wunderground v.1.15,2013-02-20 15:59:00,
2013-02-20 08:09:00,48.0,29.2,29.79,West,268,8.0,8.0,48,0.00,,,0.00,Wunderground v.1.15,2013-02-20 16:09:00,
2013-02-20 08:19:00,48.2,29.9,29.81,WNW,290,8.0,8.0,49,0.00,,,0.00,Wunderground v.1.15,2013-02-20 16:19:00,
2013-02-20 08:29:00,49.2,29.3,29.81,NNW,327,6.0,7.0,46,0.00,,,0.00,Wunderground v.1.15,2013-02-20 16:29:00,
2013-02-20 08:39:00,49.8,30.9,29.81,West,275,7.0,14.0,48,0.00,,,0.00,Wunderground v.1.15,2013-02-20 16:39:00,
2013-02-20 08:49:00,50.2,29.7,29.81,NW,317,7.0,7.0,45,0.00,,,0.00,Wunderground v.1.15,2013-02-20 16:49:00,
2013-02-20 08:59:00,50.7,30.1,29.81,West,277,8.0,10.0,45,0.00,,,0.00,Wunderground v.1.15,2013-02-20 16:59:00,
2013-02-20 09:09:00,51.3,30.1,29.82,WSW,244,6.0,10.0,44,0.00,,,0.00,Wunderground v.1.15,2013-02-20 17:09:00,
2013-02-20 09:19:00,51.7,29.3,29.82,WSW,240,7.0,9.0,42,0.00,,,0.00,Wunderground v.1.15,2013-02-20 17:19:00,
2013-02-20 09:29:00,52.0,29.6,29.82,WNW,288,8.0,9.0,42,0.00,,,0.00,Wunderground v.1.15,2013-02-20 17:29:00,
2013-02-20 09:39:00,52.5,30.0,29.82,West,277,6.0,10.0,42,0.00,,,0.00,Wunderground v.1.15,2013-02-20 17:39:00,
2013-02-20 09:49:00,52.9,29.8,29.83,West,279,8.0,9.0,41,0.00,,,0.00,Wunderground v.1.15,2013-02-20 17:49:00,
2013-02-20 09:59:00,53.5,30.4,29.83,West,267,7.0,7.0,41,0.00,,,0.00,Wunderground v.1.15,2013-02-20 17:59:00,
2013-02-20 10:09:00,54.2,30.4,29.83,West,272,5.0,7.0,40,0.00,,,0.00,Wunderground v.1.15,2013-02-20 18:09:00,
2013-02-20 10:19:00,55.0,31.1,29.84,West,265,5.0,9.0,40,0.00,,,0.00,Wunderground v.1.15,2013-02-20 18:19:00,
2013-02-20 10:29:00,55.4,32.1,29.84,WNW,288,9.0,12.0,41,0.00,,,0.00,Wunderground v.1.15,2013-02-20 18:29:00,
2013-02-20 10:39:00,55.9,33.7,29.85,West,279,9.0,13.0,43,0.00,,,0.00,Wunderground v.1.15,2013-02-20 18:39:00,
2013-02-20 10:49:00,55.9,33.7,29.85,WSW,257,9.0,10.0,43,0.00,,,0.00,Wunderground v.1.15,2013-02-20 18:49:00,
2013-02-20 10:59:00,56.0,30.1,29.85,WNW,289,8.0,10.0,37,0.00,,,0.00,Wunderground v.1.15,2013-02-20 18:59:00,
2013-02-20 11:09:00,56.3,31.0,29.86,NW,313,7.0,7.0,38,0.00,,,0.00,Wunderground v.1.15,2013-02-20 19:09:00,
2013-02-20 11:19:00,57.3,33.2,29.86,WSW,241,7.0,11.0,40,0.00,,,0.00,Wunderground v.1.15,2013-02-20 19:19:00,
2013-02-20 11:29:00,57.0,29.6,29.86,WNW,286,7.0,7.0,35,0.00,,,0.00,Wunderground v.1.15,2013-02-20 19:29:00,
2013-02-20 11:39:00,57.8,32.3,29.85,WNW,300,5.0,7.0,38,0.00,,,0.00,Wunderground v.1.15,2013-02-20 19:39:00,
2013-02-20 11:49:00,58.4,30.8,29.85,NW,311,6.0,6.0,35,0.00,,,0.00,Wunderground v.1.15,2013-02-20 19:49:00,
2013-02-20 11:59:00,58.9,31.3,29.85,NW,319,4.0,6.0,35,0.00,,,0.00,Wunderground v.1.15,2013-02-20 19:59:00,
2013-02-20 12:09:00,58.6,33.7,29.85,West,265,7.0,9.0,39,0.00,,,0.00,Wunderground v.1.15,2013-02-20 20:09:00,
2013-02-20 12:19:00,58.7,33.1,29.85,WNW,286,7.0,7.0,38,0.00,,,0.00,Wunderground v.1.15,2013-02-20 20:19:00,
2013-02-20 12:29:00,59.0,32.7,29.85,WNW,298,6.0,10.0,37,0.00,,,0.00,Wunderground v.1.15,2013-02-20 20:29:00,
2013-02-20 12:39:00,59.0,33.4,29.84,WSW,249,6.0,6.0,38,0.00,,,0.00,Wunderground v.1.15,2013-02-20 20:39:00,
2013-02-20 12:49:00,59.2,34.9,29.83,NNW,332,8.0,8.0,40,0.00,,,0.00,Wunderground v.1.15,2013-02-20 20:49:00,
2013-02-20 12:59:00,59.6,33.9,29.83,NW,322,6.0,10.0,38,0.00,,,0.00,Wunderground v.1.15,2013-02-20 20:59:00,
2013-02-20 13:09:00,59.9,32.9,29.83,WSW,253,7.0,7.0,36,0.00,,,0.00,Wunderground v.1.15,2013-02-20 21:09:00,
2013-02-20 13:19:00,60.1,33.0,29.83,NW,304,5.0,7.0,36,0.00,,,0.00,Wunderground v.1.15,2013-02-20 21:19:00,
2013-02-20 13:29:00,60.7,32.1,29.83,NW,323,6.0,6.0,34,0.00,,,0.00,Wunderground v.1.15,2013-02-20 21:29:00,
2013-02-20 13:39:00,60.4,33.3,29.83,SW,233,6.0,6.0,36,0.00,,,0.00,Wunderground v.1.15,2013-02-20 21:39:00,
2013-02-20 13:49:00,60.7,37.5,29.83,West,279,8.0,12.0,42,0.00,,,0.00,Wunderground v.1.15,2013-02-20 21:49:00,
2013-02-20 13:59:00,60.2,37.6,29.83,West,272,9.0,9.0,43,0.00,,,0.00,Wunderground v.1.15,2013-02-20 21:59:00,
2013-02-20 14:09:00,60.4,34.7,29.83,NW,311,8.0,8.0,38,0.00,,,0.00,Wunderground v.1.15,2013-02-20 22:09:00,
2013-02-20 14:19:00,60.7,34.3,29.82,West,259,8.0,8.0,37,0.00,,,0.00,Wunderground v.1.15,2013-02-20 22:19:00,
2013-02-20 14:29:00,61.5,31.3,29.82,WSW,258,7.0,9.0,32,0.00,,,0.00,Wunderground v.1.15,2013-02-20 22:29:00,
2013-02-20 14:39:00,60.7,34.3,29.83,WSW,258,10.0,14.0,37,0.00,,,0.00,Wunderground v.1.15,2013-02-20 22:39:00,
2013-02-20 14:49:00,60.9,32.3,29.83,West,277,10.0,11.0,34,0.00,,,0.00,Wunderground v.1.15,2013-02-20 22:49:00,
2013-02-20 14:59:00,61.5,32.8,29.83,NW,305,10.0,12.0,34,0.00,,,0.00,Wunderground v.1.15,2013-02-20 22:59:00,
2013-02-20 15:09:00,62.3,30.4,29.83,WSW,247,8.0,8.0,30,0.00,,,0.00,Wunderground v.1.15,2013-02-20 23:09:00,
2013-02-20 15:19:00,62.6,29.0,29.83,NW,310,8.0,11.0,28,0.00,,,0.00,Wunderground v.1.15,2013-02-20 23:19:00,
2013-02-20 15:29:00,62.7,30.8,29.83,West,278,10.0,10.0,30,0.00,,,0.00,Wunderground v.1.15,2013-02-20 23:29:00,
2013-02-20 15:39:00,62.7,25.3,29.82,West,270,9.0,9.0,24,0.00,,,0.00,Wunderground v.1.15,2013-02-20 23:39:00,
2013-02-20 15:49:00,62.6,24.2,29.83,WNW,292,10.0,16.0,23,0.00,,,0.00,Wunderground v.1.15,2013-02-20 23:49:00,
2013-02-20 15:59:00,62.3,24.0,29.83,WNW,287,11.0,14.0,23,0.00,,,0.00,Wunderground v.1.15,2013-02-20 23:59:00,
2013-02-20 16:09:00,62.0,23.7,29.83,NW,323,12.0,12.0,23,0.00,,,0.00,Wunderground v.1.15,2013-02-21 00:09:00,
2013-02-20 16:19:00,61.8,23.6,29.85,NW,311,12.0,17.0,23,0.00,,,0.00,Wunderground v.1.15,2013-02-21 00:19:00,
2013-02-20 16:29:00,62.0,25.7,29.85,NW,304,11.0,12.0,25,0.00,,,0.00,Wunderground v.1.15,2013-02-21 00:29:00,
2013-02-20 16:39:00,61.5,24.3,29.85,NW,313,11.0,11.0,24,0.00,,,0.00,Wunderground v.1.15,2013-02-21 00:39:00,
2013-02-20 16:49:00,61.5,24.3,29.85,West,267,9.0,13.0,24,0.00,,,0.00,Wunderground v.1.15,2013-02-21 00:49:00,
2013-02-20 16:59:00,58.9,40.3,29.85,WNW,297,10.0,14.0,50,0.00,,,0.00,Wunderground v.1.15,2013-02-21 00:59:00,
2013-02-20 17:09:00,58.0,39.5,29.86,WNW,290,9.0,9.0,50,0.00,,,0.00,Wunderground v.1.15,2013-02-21 01:09:00,
2013-02-20 17:19:00,59.0,24.1,29.86,NW,305,7.0,10.0,26,0.00,,,0.00,Wunderground v.1.15,2013-02-21 01:19:00,
2013-02-20 17:29:00,58.9,23.1,29.86,NNW,330,9.0,9.0,25,0.00,,,0.00,Wunderground v.1.15,2013-02-21 01:29:00,
2013-02-20 17:39:00,58.6,21.9,29.87,NNW,327,8.0,11.0,24,0.00,,,0.00,Wunderground v.1.15,2013-02-21 01:39:00,
2013-02-20 17:49:00,58.3,21.6,29.88,WNW,300,12.0,12.0,24,0.00,,,0.00,Wunderground v.1.15,2013-02-21 01:49:00,
2013-02-20 17:59:00,57.8,23.1,29.88,NW,316,11.0,17.0,26,0.00,,,0.00,Wunderground v.1.15,2013-02-21 01:59:00,
2013-02-20 18:09:00,57.6,22.9,29.88,NW,309,13.0,13.0,26,0.00,,,0.00,Wunderground v.1.15,2013-02-21 02:09:00,
2013-02-20 18:19:00,57.6,22.9,29.88,NNW,334,12.0,12.0,26,0.00,,,0.00,Wunderground v.1.15,2013-02-21 02:19:00,
2013-02-20 18:29:00,57.3,22.7,29.88,NW,317,9.0,15.0,26,0.00,,,0.00,Wunderground v.1.15,2013-02-21 02:29:00,
2013-02-20 18:39:00,56.9,24.1,29.89,North,355,9.0,12.0,28,0.00,,,0.00,Wunderground v.1.15,2013-02-21 02:39:00,
2013-02-20 18:49:00,56.5,23.7,29.90,NNW,331,9.0,10.0,28,0.00,,,0.00,Wunderground v.1.15,2013-02-21 02:49:00,
2013-02-20 18:59:00,56.2,23.5,29.90,NNW,331,9.0,10.0,28,0.00,,,0.00,Wunderground v.1.15,2013-02-21 02:59:00,
2013-02-20 19:09:00,56.2,23.5,29.90,North,355,8.0,8.0,28,0.00,,,0.00,Wunderground v.1.15,2013-02-21 03:09:00,
2013-02-20 19:19:00,55.7,24.7,29.91,North,351,4.0,4.0,30,0.00,,,0.00,Wunderground v.1.15,2013-02-21 03:19:00,
2013-02-20 19:29:00,53.8,26.8,29.91,NNE,14,1.0,5.0,35,0.00,,,0.00,Wunderground v.1.15,2013-02-21 03:29:00,
2013-02-20 19:39:00,52.9,26.0,29.92,North,360,4.0,6.0,35,0.00,,,0.00,Wunderground v.1.15,2013-02-21 03:39:00,
2013-02-20 19:49:00,53.5,25.1,29.92,NNE,23,5.0,6.0,33,0.00,,,0.00,Wunderground v.1.15,2013-02-21 03:49:00,
2013-02-20 19:59:00,52.8,30.3,29.92,North,9,6.0,7.0,42,0.00,,,0.00,Wunderground v.1.15,2013-02-21 03:59:00,
2013-02-20 20:09:00,51.7,31.0,29.94,North,9,5.0,5.0,45,0.00,,,0.00,Wunderground v.1.15,2013-02-21 04:09:00,
2013-02-20 20:19:00,50.8,31.8,29.94,North,9,4.0,4.0,48,0.00,,,0.00,Wunderground v.1.15,2013-02-21 04:19:00,
2013-02-20 20:29:00,50.2,31.8,29.94,North,10,2.0,3.0,49,0.00,,,0.00,Wunderground v.1.15,2013-02-21 04:29:00,
2013-02-20 20:39:00,49.8,31.9,29.95,North,10,2.0,2.0,50,0.00,,,0.00,Wunderground v.1.15,2013-02-21 04:39:00,
2013-02-20 20:49:00,49.4,31.5,29.96,North,9,1.0,1.0,50,0.00,,,0.00,Wunderground v.1.15,2013-02-21 04:49:00,
2013-02-20 20:59:00,48.8,30.0,29.96,North,9,4.0,5.0,48,0.00,,,0.00,Wunderground v.1.15,2013-02-21 04:59:00,
2013-02-20 21:09:00,49.1,28.7,29.97,North,10,4.0,4.0,45,0.00,,,0.00,Wunderground v.1.15,2013-02-21 05:09:00,
2013-02-20 21:19:00,49.2,28.7,29.97,North,9,1.0,1.0,45,0.00,,,0.00,Wunderground v.1.15,2013-02-21 05:19:00,
2013-02-20 21:29:00,49.2,28.2,29.97,North,10,1.0,1.0,44,0.00,,,0.00,Wunderground v.1.15,2013-02-21 05:29:00,
2013-02-20 21:39:00,49.1,28.1,29.97,North,10,0.0,0.0,44,0.00,,,0.00,Wunderground v.1.15,2013-02-21 05:39:00,
2013-02-20 21:49:00,48.3,30.0,29.98,North,9,1.0,2.0,49,0.00,,,0.00,Wunderground v.1.15,2013-02-21 05:49:00,
2013-02-20 21:59:00,47.0,30.3,29.98,North,10,1.0,1.0,52,0.00,,,0.00,Wunderground v.1.15,2013-02-21 05:59:00,
2013-02-20 22:09:00,46.5,30.3,29.98,North,10,0.0,0.0,53,0.00,,,0.00,Wunderground v.1.15,2013-02-21 06:09:00,
2013-02-20 22:19:00,46.1,30.4,29.98,North,10,0.0,0.0,54,0.00,,,0.00,Wunderground v.1.15,2013-02-21 06:19:00,
2013-02-20 22:29:00,46.0,30.7,29.98,North,10,1.0,2.0,55,0.00,,,0.00,Wunderground v.1.15,2013-02-21 06:29:00,
2013-02-20 22:39:00,45.7,30.9,29.99,North,10,1.0,1.0,56,0.00,,,0.00,Wunderground v.1.15,2013-02-21 06:39:00,
2013-02-20 22:49:00,44.9,30.1,29.99,North,10,0.0,0.0,56,0.00,,,0.00,Wunderground v.1.15,2013-02-21 06:49:00,
2013-02-20 22:59:00,44.6,30.7,29.99,North,10,1.0,1.0,58,0.00,,,0.00,Wunderground v.1.15,2013-02-21 06:59:00,
2013-02-20 23:09:00,44.3,30.4,29.99,North,10,1.0,3.0,58,0.00,,,0.00,Wunderground v.1.15,2013-02-21 07:09:00,
2013-02-20 23:19:00,43.8,30.8,29.99,North,10,3.0,3.0,60,0.00,,,0.00,Wunderground v.1.15,2013-02-21 07:19:00,
2013-02-20 23:29:00,43.1,31.0,29.99,North,10,2.0,4.0,62,0.00,,,0.00,Wunderground v.1.15,2013-02-21 07:29:00,
2013-02-20 23:39:00,42.6,30.5,29.99,NNE,14,3.0,4.0,62,0.00,,,0.00,Wunderground v.1.15,2013-02-21 07:39:00,
2013-02-20 23:49:00,42.1,30.8,29.99,NNE,14,2.0,2.0,64,0.00,,,0.00,Wunderground v.1.15,2013-02-21 07:49:00,
2013-02-20 23:59:00,41.5,31.0,29.99,NNE,14,2.0,2.0,66,0.00,,,0.00,Wunderground v.1.15,2013-02-21 07:59:00,